| time (UTC) | temp F | wind direction | speed MPH | gust MPH | rain 1hr in | rain 24hr in | rain mn in | humidity % | barometer mb |
| 20260902055510 | 58 | 45 | 0.0 | 0.0 | 0.00 | 0.00 | 0.00 | 85 | 1017.0 |
| 20260902055010 | 58 | 45 | 0.0 | 0.0 | 0.00 | 0.00 | 0.00 | 85 | 1017.0 |
| 20260902054513 | 58 | 45 | 0.0 | 0.0 | 0.00 | 0.00 | 0.00 | 85 | 1017.0 |
| 20260902054010 | 59 | 45 | 0.0 | 0.0 | 0.00 | 0.00 | 0.00 | 85 | 1017.1 |
| 20260902053510 | 59 | 45 | 0.0 | 0.0 | 0.00 | 0.00 | 0.00 | 85 | 1017.0 |
| 20260902053010 | 59 | 45 | 0.0 | 0.0 | 0.00 | 0.00 | 0.00 | 85 | 1017.1 |
| 20260902052509 | 59 | 45 | 0.0 | 0.0 | 0.00 | 0.00 | 0.00 | 85 | 1017.2 |
| 20260902052009 | 59 | 45 | 0.0 | 0.0 | 0.00 | 0.00 | 0.00 | 85 | 1017.3 |
| 20260902051510 | 59 | 45 | 0.0 | 1.0 | 0.00 | 0.00 | 0.00 | 85 | 1017.2 |
| 20260902051010 | 59 | 45 | 0.0 | 2.0 | 0.00 | 0.00 | 0.00 | 85 | 1017.3 |
| 20260902050511 | 60 | 45 | 0.0 | 0.0 | 0.00 | 0.00 | 0.00 | 85 | 1017.4 |
| 20260902050004 | 60 | 45 | 0.0 | 1.0 | 0.00 | 0.00 | 0.00 | 85 | 1017.4 |
| 20260902045501 | 60 | 45 | 0.0 | 3.0 | 0.00 | 0.00 | 0.00 | 85 | 1017.3 |
| 20260902045002 | 60 | 44 | 0.0 | 7.0 | 0.00 | 0.00 | 0.00 | 85 | 1017.2 |
| 20260902044502 | 60 | 13 | 0.0 | 6.0 | 0.00 | 0.00 | 0.00 | 85 | 1017.3 |
| 20260902044001 | 60 | 35 | 0.0 | 7.0 | 0.00 | 0.00 | 0.00 | 85 | 1017.3 |
| 20260902043501 | 60 | 75 | 0.0 | 8.0 | 0.00 | 0.00 | 0.00 | 86 | 1017.1 |
| 20260902043100 | 61 | 50 | 0.0 | 8.0 | 0.00 | 0.00 | 0.00 | 86 | 1017.1 |
| 20260902042600 | 61 | 15 | 0.0 | 4.0 | 0.00 | 0.00 | 0.00 | 86 | 1017.1 |
| 20260902042101 | 61 | 32 | 0.0 | 4.0 | 0.00 | 0.00 | 0.00 | 86 | 1017.0 |
| 20260902041604 | 61 | 71 | 0.0 | 4.0 | 0.00 | 0.00 | 0.00 | 86 | 1017.0 |
| 20260902041059 | 61 | 14 | 0.0 | 8.0 | 0.00 | 0.00 | 0.00 | 86 | 1016.9 |
| 20260902040600 | 61 | 25 | 2.0 | 8.0 | 0.00 | 0.00 | 0.00 | 86 | 1016.8 |
| 20260902040052 | 62 | 17 | 2.0 | 10.0 | 0.00 | 0.00 | 0.00 | 86 | 1016.7 |
| 20260902035552 | 62 | 352 | 0.0 | 10.0 | 0.00 | 0.00 | 0.00 | 86 | 1016.8 |
| 20260902035052 | 62 | 350 | 0.0 | 7.0 | 0.00 | 0.00 | 0.00 | 86 | 1016.7 |
| 20260902034552 | 62 | 6 | 1.0 | 7.0 | 0.00 | 0.00 | 0.00 | 86 | 1016.6 |
| 20260902034050 | 62 | 14 | 1.0 | 7.0 | 0.00 | 0.00 | 0.00 | 86 | 1016.6 |
| 20260902033551 | 62 | 41 | 2.0 | 5.0 | 0.00 | 0.00 | 0.00 | 87 | 1016.5 |
| 20260902033051 | 62 | 46 | 1.0 | 6.0 | 0.00 | 0.00 | 0.00 | 87 | 1016.5 |
| 20260902032555 | 62 | 45 | 0.0 | 6.0 | 0.00 | 0.00 | 0.00 | 87 | 1016.4 |
| 20260902032050 | 62 | 22 | 0.0 | 7.0 | 0.00 | 0.00 | 0.00 | 87 | 1016.4 |
| 20260902031558 | 62 | 1 | 0.0 | 5.0 | 0.00 | 0.00 | 0.00 | 88 | 1016.4 |
| 20260902031050 | 62 | 13 | 1.0 | 8.0 | 0.00 | 0.00 | 0.00 | 88 | 1016.4 |
| 20260902030551 | 62 | 342 | 1.0 | 9.0 | 0.00 | 0.00 | 0.00 | 88 | 1016.3 |
| 20260902030044 | 62 | 27 | 1.0 | 9.0 | 0.00 | 0.00 | 0.00 | 89 | 1016.3 |
| 20260902025546 | 62 | 108 | 0.0 | 9.0 | 0.00 | 0.00 | 0.00 | 88 | 1016.3 |
| 20260902025043 | 62 | 3 | 1.0 | 9.0 | 0.00 | 0.00 | 0.00 | 89 | 1016.2 |
| 20260902024551 | 63 | 12 | 2.0 | 7.0 | 0.00 | 0.00 | 0.00 | 89 | 1016.2 |
| 20260902024043 | 63 | 347 | 0.0 | 10.0 | 0.00 | 0.00 | 0.00 | 89 | 1016.2 |
| 20260902023543 | 63 | 49 | 2.0 | 10.0 | 0.00 | 0.00 | 0.00 | 88 | 1016.2 |
| 20260902023046 | 63 | 35 | 0.0 | 10.0 | 0.00 | 0.00 | 0.00 | 88 | 1016.0 |
| 20260902022542 | 64 | 347 | 2.0 | 10.0 | 0.00 | 0.00 | 0.00 | 88 | 1016.1 |
| 20260902022042 | 64 | 340 | 0.0 | 8.0 | 0.00 | 0.00 | 0.00 | 88 | 1016.0 |
| 20260902021544 | 64 | 56 | 1.0 | 9.0 | 0.00 | 0.00 | 0.00 | 87 | 1016.1 |
| 20260902021042 | 64 | 35 | 0.0 | 6.0 | 0.00 | 0.00 | 0.00 | 87 | 1016.0 |
| 20260902020543 | 65 | 34 | 0.0 | 9.0 | 0.00 | 0.00 | 0.00 | 87 | 1016.1 |
| 20260902020127 | 65 | 10 | 2.0 | 9.0 | 0.00 | 0.00 | 0.00 | 87 | 1016.0 |
| 20260902015525 | 65 | 15 | 2.0 | 7.0 | 0.00 | 0.00 | 0.00 | 87 | 1016.0 |
| 20260902015025 | 65 | 62 | 0.0 | 10.0 | 0.00 | 0.00 | 0.00 | 86 | 1015.9 |
| 20260902014528 | 66 | 43 | 2.0 | 10.0 | 0.00 | 0.00 | 0.00 | 86 | 1015.9 |
| 20260902014028 | 66 | 331 | 1.0 | 10.0 | 0.00 | 0.00 | 0.00 | 86 | 1015.9 |
| 20260902013524 | 66 | 303 | 0.0 | 8.0 | 0.00 | 0.00 | 0.00 | 86 | 1015.9 |
| 20260902013024 | 67 | 332 | 2.0 | 9.0 | 0.00 | 0.00 | 0.00 | 85 | 1015.8 |
| 20260902012529 | 67 | 334 | 1.0 | 14.0 | 0.00 | 0.00 | 0.00 | 85 | 1015.8 |
| 20260902012024 | 67 | 29 | 2.0 | 12.0 | 0.00 | 0.00 | 0.00 | 85 | 1015.8 |
| 20260902011529 | 67 | 321 | 1.0 | 9.0 | 0.00 | 0.00 | 0.00 | 85 | 1015.9 |
| 20260902011024 | 68 | 28 | 1.0 | 10.0 | 0.00 | 0.00 | 0.00 | 84 | 1015.9 |
| 20260902010523 | 68 | 1 | 2.0 | 10.0 | 0.00 | 0.00 | 0.00 | 84 | 1015.9 |
| 20260902010024 | 68 | 55 | 2.0 | 10.0 | 0.00 | 0.00 | 0.00 | 84 | 1015.9 |
| 20260902005523 | 69 | 297 | 3.0 | 16.0 | 0.00 | 0.00 | 0.00 | 85 | 1015.8 |
| 20260902005026 | 69 | 124 | 3.0 | 14.0 | 0.00 | 0.00 | 0.00 | 83 | 1015.9 |
| 20260902004523 | 69 | 34 | 3.0 | 14.0 | 0.00 | 0.00 | 0.00 | 84 | 1015.9 |
| 20260902004022 | 69 | 6 | 2.0 | 9.0 | 0.00 | 0.00 | 0.00 | 84 | 1015.8 |
| 20260902003522 | 69 | 23 | 2.0 | 10.0 | 0.00 | 0.00 | 0.00 | 84 | 1015.8 |
| 20260902003023 | 69 | 15 | 2.0 | 10.0 | 0.00 | 0.00 | 0.00 | 84 | 1015.7 |
| 20260902002525 | 69 | 23 | 0.0 | 6.0 | 0.00 | 0.00 | 0.00 | 85 | 1015.7 |
| 20260902002022 | 69 | 313 | 0.0 | 13.0 | 0.00 | 0.00 | 0.00 | 86 | 1015.7 |
| 20260902001522 | 69 | 316 | 0.0 | 13.0 | 0.00 | 0.00 | 0.00 | 86 | 1015.6 |
| 20260902001022 | 69 | 319 | 3.0 | 13.0 | 0.00 | 0.00 | 0.00 | 86 | 1015.7 |
| 20260902000521 | 70 | 303 | 7.0 | 13.0 | 0.00 | 0.00 | 0.00 | 86 | 1015.7 |
| 20260902000021 | 70 | 296 | 7.0 | 17.0 | 0.00 | 0.00 | 0.00 | 85 | 1015.6 |
| 20260901235522 | 71 | 290 | 7.0 | 14.0 | 0.00 | 0.00 | 0.00 | 85 | 1015.7 |
| 20260901235024 | 71 | 310 | 4.0 | 13.0 | 0.00 | 0.00 | 0.00 | 85 | 1015.7 |
| 20260901234520 | 71 | 302 | 5.0 | 15.0 | 0.00 | 0.00 | 0.00 | 85 | 1015.7 |
| 20260901234020 | 71 | 321 | 8.0 | 15.0 | 0.00 | 0.00 | 0.00 | 84 | 1015.7 |
| 20260901233520 | 71 | 331 | 4.0 | 16.0 | 0.00 | 0.00 | 0.00 | 84 | 1015.7 |
| 20260901233025 | 71 | 300 | 9.0 | 16.0 | 0.00 | 0.00 | 0.00 | 83 | 1015.7 |
| 20260901232518 | 71 | 345 | 7.0 | 15.0 | 0.00 | 0.00 | 0.00 | 84 | 1015.8 |
| 20260901232019 | 71 | 11 | 9.0 | 15.0 | 0.00 | 0.00 | 0.00 | 83 | 1015.8 |
| 20260901231525 | 71 | 314 | 6.0 | 15.0 | 0.00 | 0.00 | 0.00 | 84 | 1015.8 |
| 20260901231020 | 71 | 322 | 6.0 | 15.0 | 0.00 | 0.00 | 0.00 | 84 | 1015.8 |
| 20260901230518 | 72 | 296 | 8.0 | 17.0 | 0.00 | 0.00 | 0.00 | 83 | 1015.9 |
| 20260901230020 | 72 | 284 | 8.0 | 17.0 | 0.00 | 0.00 | 0.00 | 83 | 1015.9 |
| 20260901225519 | 72 | 326 | 7.0 | 13.0 | 0.00 | 0.00 | 0.00 | 83 | 1016.0 |
| 20260901225018 | 72 | 302 | 6.0 | 13.0 | 0.00 | 0.00 | 0.00 | 84 | 1015.9 |
| 20260901224517 | 72 | 275 | 8.0 | 13.0 | 0.00 | 0.00 | 0.00 | 83 | 1015.8 |
| 20260901224019 | 72 | 306 | 3.0 | 11.0 | 0.00 | 0.00 | 0.00 | 83 | 1015.8 |
| 20260901223515 | 72 | 291 | 2.0 | 14.0 | 0.00 | 0.00 | 0.00 | 83 | 1015.9 |
| 20260901223016 | 72 | 283 | 4.0 | 14.0 | 0.00 | 0.00 | 0.00 | 84 | 1015.8 |
| 20260901222516 | 72 | 299 | 10.0 | 14.0 | 0.00 | 0.00 | 0.00 | 83 | 1016.0 |
| 20260901222017 | 72 | 308 | 6.0 | 13.0 | 0.00 | 0.00 | 0.00 | 83 | 1016.1 |
| 20260901221514 | 72 | 274 | 6.0 | 13.0 | 0.00 | 0.00 | 0.00 | 83 | 1016.0 |
| 20260901221013 | 72 | 274 | 4.0 | 12.0 | 0.00 | 0.00 | 0.00 | 84 | 1016.0 |
| 20260901220514 | 71 | 293 | 6.0 | 13.0 | 0.00 | 0.00 | 0.00 | 83 | 1016.2 |
| 20260901220012 | 71 | 312 | 7.0 | 14.0 | 0.00 | 0.00 | 0.00 | 83 | 1016.2 |
| 20260901215513 | 71 | 326 | 7.0 | 14.0 | 0.00 | 0.00 | 0.00 | 83 | 1016.2 |
| 20260901215011 | 71 | 310 | 7.0 | 14.0 | 0.00 | 0.00 | 0.00 | 84 | 1016.1 |
| 20260901214511 | 71 | 302 | 8.0 | 14.0 | 0.00 | 0.00 | 0.00 | 83 | 1016.1 |
| 20260901214012 | 71 | 291 | 4.0 | 14.0 | 0.00 | 0.00 | 0.00 | 84 | 1016.3 |
| 20260901213511 | 71 | 306 | 7.0 | 17.0 | 0.00 | 0.00 | 0.00 | 84 | 1016.3 |
| 20260901213021 | 71 | 318 | 9.0 | 17.0 | 0.00 | 0.00 | 0.00 | 83 | 1016.4 |
| 20260901212511 | 71 | 276 | 8.0 | 16.0 | 0.00 | 0.00 | 0.00 | 84 | 1016.3 |
| 20260901212014 | 71 | 331 | 5.0 | 16.0 | 0.00 | 0.00 | 0.00 | 84 | 1016.5 |
| 20260901211513 | 71 | 303 | 5.0 | 16.0 | 0.00 | 0.00 | 0.00 | 84 | 1016.4 |
| 20260901211010 | 71 | 321 | 8.0 | 17.0 | 0.00 | 0.00 | 0.00 | 84 | 1016.5 |
| 20260901210509 | 71 | 306 | 8.0 | 17.0 | 0.00 | 0.00 | 0.00 | 84 | 1016.5 |
| 20260901210013 | 71 | 283 | 5.0 | 13.0 | 0.00 | 0.00 | 0.00 | 84 | 1016.5 |
| 20260901205508 | 71 | 298 | 6.0 | 16.0 | 0.00 | 0.00 | 0.00 | 84 | 1016.5 |
| 20260901205009 | 71 | 281 | 9.0 | 15.0 | 0.00 | 0.00 | 0.00 | 84 | 1016.5 |
| 20260901204512 | 71 | 298 | 9.0 | 16.0 | 0.00 | 0.00 | 0.00 | 84 | 1016.5 |
| 20260901204008 | 71 | 304 | 7.0 | 19.0 | 0.00 | 0.00 | 0.00 | 84 | 1016.6 |
| 20260901203507 | 71 | 288 | 10.0 | 19.0 | 0.00 | 0.00 | 0.00 | 83 | 1016.7 |
| 20260901203007 | 71 | 318 | 7.0 | 16.0 | 0.00 | 0.00 | 0.00 | 84 | 1016.6 |
| 20260901202508 | 71 | 331 | 6.0 | 14.0 | 0.00 | 0.00 | 0.00 | 84 | 1016.7 |
| 20260901202002 | 71 | 347 | 6.0 | 14.0 | 0.00 | 0.00 | 0.00 | 83 | 1016.7 |
| 20260901201501 | 71 | 327 | 4.0 | 13.0 | 0.00 | 0.00 | 0.00 | 83 | 1016.7 |
| 20260901201101 | 71 | 316 | 2.0 | 13.0 | 0.00 | 0.00 | 0.00 | 84 | 1016.7 |
| 20260901200600 | 71 | 311 | 4.0 | 13.0 | 0.00 | 0.00 | 0.00 | 84 | 1017.0 |
| 20260901200059 | 71 | 298 | 3.0 | 14.0 | 0.00 | 0.00 | 0.00 | 84 | 1016.9 |
| 20260901195559 | 71 | 330 | 5.0 | 14.0 | 0.00 | 0.00 | 0.00 | 84 | 1016.9 |
| 20260901195103 | 71 | 288 | 7.0 | 13.0 | 0.00 | 0.00 | 0.00 | 83 | 1017.0 |
| 20260901194602 | 71 | 298 | 4.0 | 11.0 | 0.00 | 0.00 | 0.00 | 84 | 1017.0 |
| 20260901194058 | 71 | 293 | 6.0 | 12.0 | 0.00 | 0.00 | 0.00 | 84 | 1017.0 |
| 20260901193655 | 71 | 275 | 6.0 | 13.0 | 0.00 | 0.00 | 0.00 | 84 | 1017.0 |
| 20260901193056 | 71 | 321 | 6.0 | 13.0 | 0.00 | 0.00 | 0.00 | 83 | 1016.9 |
| 20260901192558 | 71 | 308 | 3.0 | 13.0 | 0.00 | 0.00 | 0.00 | 84 | 1016.8 |
| 20260901192054 | 71 | 344 | 7.0 | 15.0 | 0.00 | 0.00 | 0.00 | 83 | 1016.9 |
| 20260901191552 | 71 | 308 | 7.0 | 14.0 | 0.00 | 0.00 | 0.00 | 83 | 1016.8 |
| 20260901191052 | 71 | 293 | 5.0 | 14.0 | 0.00 | 0.00 | 0.00 | 84 | 1016.8 |
| 20260901190550 | 70 | 317 | 5.0 | 15.0 | 0.00 | 0.00 | 0.00 | 84 | 1017.0 |
| 20260901190049 | 71 | 327 | 6.0 | 15.0 | 0.00 | 0.00 | 0.00 | 83 | 1017.0 |
| 20260901185548 | 70 | 297 | 6.0 | 15.0 | 0.00 | 0.00 | 0.00 | 84 | 1017.0 |
| 20260901185047 | 70 | 301 | 4.0 | 15.0 | 0.00 | 0.00 | 0.00 | 83 | 1016.9 |
| 20260901184546 | 70 | 318 | 6.0 | 14.0 | 0.00 | 0.00 | 0.00 | 83 | 1016.9 |
| 20260901184045 | 70 | 277 | 6.0 | 14.0 | 0.00 | 0.00 | 0.00 | 83 | 1016.9 |
| 20260901183546 | 70 | 318 | 7.0 | 12.0 | 0.00 | 0.00 | 0.00 | 83 | 1016.9 |
| 20260901183103 | 70 | 308 | 3.0 | 12.0 | 0.00 | 0.00 | 0.00 | 83 | 1016.9 |
| 20260901182542 | 70 | 342 | 4.0 | 12.0 | 0.00 | 0.00 | 0.00 | 83 | 1017.1 |
| 20260901182041 | 71 | 321 | 4.0 | 12.0 | 0.00 | 0.00 | 0.00 | 83 | 1017.1 |
| 20260901181540 | 71 | 336 | 2.0 | 10.0 | 0.00 | 0.00 | 0.00 | 82 | 1017.1 |
| 20260901181037 | 71 | 317 | 6.0 | 10.0 | 0.00 | 0.00 | 0.00 | 82 | 1017.1 |
| 20260901180537 | 71 | 350 | 2.0 | 10.0 | 0.00 | 0.00 | 0.00 | 82 | 1017.0 |
| 20260901180035 | 71 | 294 | 2.0 | 9.0 | 0.00 | 0.00 | 0.00 | 82 | 1017.0 |
| 20260901175534 | 70 | 332 | 2.0 | 9.0 | 0.00 | 0.00 | 0.00 | 83 | 1017.0 |
| 20260901175033 | 70 | 289 | 4.0 | 9.0 | 0.00 | 0.00 | 0.00 | 83 | 1017.0 |
| 20260901174532 | 70 | 304 | 4.0 | 9.0 | 0.00 | 0.00 | 0.00 | 83 | 1017.0 |
| 20260901174031 | 70 | 319 | 2.0 | 12.0 | 0.00 | 0.00 | 0.00 | 83 | 1016.9 |
| 20260901173529 | 70 | 286 | 4.0 | 9.0 | 0.00 | 0.00 | 0.00 | 83 | 1016.9 |
| 20260901173029 | 70 | 10 | 1.0 | 9.0 | 0.00 | 0.00 | 0.00 | 83 | 1016.8 |
| 20260901172527 | 70 | 301 | 4.0 | 9.0 | 0.00 | 0.00 | 0.00 | 83 | 1016.9 |
| 20260901172027 | 69 | 308 | 4.0 | 9.0 | 0.00 | 0.00 | 0.00 | 83 | 1016.8 |
| 20260901171538 | 70 | 289 | 1.0 | 11.0 | 0.00 | 0.00 | 0.00 | 83 | 1016.8 |
| 20260901171029 | 70 | 301 | 4.0 | 8.0 | 0.00 | 0.00 | 0.00 | 82 | 1016.8 |
| 20260901170524 | 70 | 12 | 0.0 | 5.0 | 0.00 | 0.00 | 0.00 | 82 | 1016.8 |
| 20260901170031 | 70 | 254 | 0.0 | 4.0 | 0.00 | 0.00 | 0.00 | 82 | 1016.9 |
| 20260901165516 | 70 | 141 | 0.0 | 5.0 | 0.00 | 0.00 | 0.00 | 82 | 1016.9 |
| 20260901165013 | 69 | 67 | 0.0 | 6.0 | 0.00 | 0.00 | 0.00 | 82 | 1016.8 |
| 20260901164613 | 69 | 22 | 0.0 | 6.0 | 0.00 | 0.00 | 0.00 | 82 | 1016.9 |
| 20260901164034 | 68 | 37 | 2.0 | 7.0 | 0.00 | 0.00 | 0.00 | 81 | 1016.8 |
| 20260901163533 | 68 | 67 | 1.0 | 7.0 | 0.00 | 0.00 | 0.00 | 81 | 1016.7 |
| 20260901163046 | 67 | 60 | 0.0 | 6.0 | 0.00 | 0.00 | 0.00 | 81 | 1016.8 |
| 20260901162530 | 67 | 356 | 0.0 | 3.0 | 0.00 | 0.00 | 0.00 | 81 | 1016.7 |
| 20260901162035 | 67 | 360 | 0.0 | 3.0 | 0.00 | 0.00 | 0.00 | 81 | 1016.7 |
| 20260901161529 | 67 | 360 | 0.0 | 6.0 | 0.00 | 0.00 | 0.00 | 81 | 1016.7 |
| 20260901161027 | 66 | 359 | 0.0 | 6.0 | 0.00 | 0.00 | 0.00 | 80 | 1016.7 |
| 20260901160525 | 66 | 145 | 0.0 | 2.0 | 0.00 | 0.00 | 0.00 | 80 | 1016.8 |
| 20260901160023 | 65 | 145 | 0.0 | 3.0 | 0.00 | 0.00 | 0.00 | 80 | 1016.7 |
| 20260901155522 | 65 | 145 | 0.0 | 3.0 | 0.00 | 0.00 | 0.00 | 80 | 1016.7 |
| 20260901155021 | 64 | 139 | 0.0 | 3.0 | 0.00 | 0.00 | 0.00 | 80 | 1016.7 |
| 20260901154519 | 63 | 139 | 0.0 | 3.0 | 0.00 | 0.00 | 0.00 | 80 | 1016.7 |
| 20260901154021 | 63 | 132 | 0.0 | 4.0 | 0.00 | 0.00 | 0.00 | 80 | 1016.6 |
| 20260901153517 | 62 | 131 | 1.0 | 4.0 | 0.00 | 0.00 | 0.00 | 80 | 1016.6 |
| 20260901153015 | 62 | 144 | 1.0 | 4.0 | 0.00 | 0.00 | 0.00 | 80 | 1016.6 |
| 20260901152516 | 61 | 123 | 1.0 | 4.0 | 0.00 | 0.00 | 0.00 | 80 | 1016.7 |
| 20260901152015 | 60 | 123 | 1.0 | 5.0 | 0.00 | 0.00 | 0.00 | 80 | 1016.5 |
| 20260901151511 | 60 | 105 | 1.0 | 5.0 | 0.00 | 0.00 | 0.00 | 80 | 1016.5 |
| 20260901151010 | 60 | 96 | 2.0 | 6.0 | 0.00 | 0.00 | 0.00 | 80 | 1016.5 |
| 20260901150508 | 59 | 112 | 1.0 | 4.0 | 0.00 | 0.00 | 0.00 | 80 | 1016.5 |
| 20260901150008 | 58 | 114 | 2.0 | 5.0 | 0.00 | 0.00 | 0.00 | 80 | 1016.6 |
| 20260901145505 | 58 | 102 | 1.0 | 6.0 | 0.00 | 0.00 | 0.00 | 80 | 1016.6 |
| 20260901145002 | 57 | 92 | 2.0 | 7.0 | 0.00 | 0.00 | 0.00 | 80 | 1016.5 |
| 20260901144502 | 57 | 110 | 4.0 | 7.0 | 0.00 | 0.00 | 0.00 | 80 | 1016.5 |
| 20260901144104 | 57 | 102 | 4.0 | 7.0 | 0.00 | 0.00 | 0.00 | 80 | 1016.4 |
| 20260901143559 | 56 | 108 | 2.0 | 6.0 | 0.00 | 0.00 | 0.00 | 81 | 1016.4 |
| 20260901143107 | 56 | 115 | 3.0 | 4.0 | 0.00 | 0.00 | 0.00 | 81 | 1016.5 |
| 20260901142555 | 55 | 110 | 2.0 | 6.0 | 0.00 | 0.00 | 0.00 | 81 | 1016.4 |
| 20260901142050 | 55 | 112 | 2.0 | 6.0 | 0.00 | 0.00 | 0.00 | 81 | 1016.2 |
| 20260901141549 | 55 | 103 | 2.0 | 4.0 | 0.00 | 0.00 | 0.00 | 81 | 1016.2 |
| 20260901141049 | 55 | 108 | 0.0 | 4.0 | 0.00 | 0.00 | 0.00 | 82 | 1016.2 |
| 20260901140545 | 54 | 108 | 1.0 | 4.0 | 0.00 | 0.00 | 0.00 | 82 | 1016.2 |
| 20260901140033 | 54 | 108 | 0.0 | 4.0 | 0.00 | 0.00 | 0.00 | 82 | 1016.2 |
| 20260901135532 | 54 | 106 | 0.0 | 4.0 | 0.00 | 0.00 | 0.00 | 82 | 1016.2 |
| 20260901135030 | 54 | 106 | 2.0 | 4.0 | 0.00 | 0.00 | 0.00 | 82 | 1016.1 |
| 20260901134631 | 54 | 106 | 2.0 | 3.0 | 0.00 | 0.00 | 0.00 | 82 | 1016.2 |
| 20260901134031 | 54 | 106 | 0.0 | 0.0 | 0.00 | 0.00 | 0.00 | 82 | 1016.2 |
| 20260901133533 | 55 | 106 | 0.0 | 0.0 | 0.00 | 0.00 | 0.00 | 81 | 1016.0 |
| 20260901133028 | 55 | 106 | 0.0 | 0.0 | 0.00 | 0.00 | 0.00 | 81 | 1016.0 |
| 20260901132529 | 55 | 106 | 0.0 | 0.0 | 0.00 | 0.00 | 0.00 | 81 | 1016.0 |
| 20260901132028 | 55 | 106 | 0.0 | 3.0 | 0.00 | 0.00 | 0.00 | 81 | 1016.0 |
| 20260901131535 | 55 | 106 | 0.0 | 3.0 | 0.00 | 0.00 | 0.00 | 82 | 1015.9 |
| 20260901131027 | 55 | 106 | 0.0 | 2.0 | 0.00 | 0.00 | 0.00 | 82 | 1015.9 |
| 20260901130527 | 55 | 106 | 0.0 | 3.0 | 0.00 | 0.00 | 0.00 | 82 | 1015.9 |
| 20260901130028 | 55 | 106 | 1.0 | 4.0 | 0.00 | 0.00 | 0.00 | 82 | 1015.9 |
| 20260901125525 | 55 | 108 | 0.0 | 4.0 | 0.00 | 0.00 | 0.00 | 81 | 1016.0 |
| 20260901125026 | 55 | 108 | 1.0 | 4.0 | 0.00 | 0.00 | 0.00 | 81 | 1016.0 |
| 20260901124525 | 55 | 108 | 0.0 | 4.0 | 0.00 | 0.00 | 0.00 | 81 | 1016.0 |
| 20260901124030 | 55 | 108 | 1.0 | 4.0 | 0.00 | 0.00 | 0.00 | 81 | 1015.9 |
| 20260901123525 | 55 | 106 | 1.0 | 4.0 | 0.00 | 0.00 | 0.00 | 81 | 1015.8 |
| 20260901123032 | 55 | 104 | 2.0 | 6.0 | 0.00 | 0.00 | 0.00 | 81 | 1015.8 |
| 20260901122525 | 55 | 100 | 2.0 | 6.0 | 0.00 | 0.00 | 0.00 | 81 | 1015.8 |
| 20260901122024 | 55 | 108 | 2.0 | 4.0 | 0.00 | 0.00 | 0.00 | 81 | 1015.7 |
| 20260901121523 | 55 | 106 | 2.0 | 4.0 | 0.00 | 0.00 | 0.00 | 81 | 1015.7 |
| 20260901121025 | 56 | 82 | 0.0 | 3.0 | 0.00 | 0.00 | 0.00 | 81 | 1015.8 |
| 20260901120522 | 56 | 82 | 0.0 | 2.0 | 0.00 | 0.00 | 0.00 | 81 | 1015.7 |
| 20260901120022 | 56 | 81 | 0.0 | 3.0 | 0.00 | 0.00 | 0.00 | 81 | 1015.7 |
| 20260901115522 | 56 | 81 | 1.0 | 3.0 | 0.00 | 0.00 | 0.00 | 81 | 1015.6 |
| 20260901115025 | 56 | 81 | 0.0 | 0.0 | 0.00 | 0.00 | 0.00 | 81 | 1015.6 |
| 20260901114522 | 56 | 81 | 0.0 | 0.0 | 0.00 | 0.00 | 0.00 | 81 | 1015.7 |
| 20260901114021 | 56 | 81 | 0.0 | 0.0 | 0.00 | 0.00 | 0.00 | 81 | 1015.7 |
| 20260901113521 | 56 | 81 | 0.0 | 0.0 | 0.00 | 0.00 | 0.00 | 81 | 1015.7 |
| 20260901113020 | 56 | 81 | 0.0 | 0.0 | 0.00 | 0.00 | 0.00 | 81 | 1015.7 |
| 20260901112520 | 56 | 81 | 0.0 | 0.0 | 0.00 | 0.00 | 0.00 | 81 | 1015.6 |
| 20260901112022 | 56 | 81 | 0.0 | 0.0 | 0.00 | 0.00 | 0.00 | 81 | 1015.6 |
| 20260901111520 | 56 | 81 | 0.0 | 0.0 | 0.00 | 0.00 | 0.00 | 81 | 1015.6 |
| 20260901111020 | 56 | 81 | 0.0 | 0.0 | 0.00 | 0.00 | 0.00 | 81 | 1015.5 |
| 20260901110519 | 56 | 81 | 0.0 | 0.0 | 0.00 | 0.00 | 0.00 | 81 | 1015.5 |
| 20260901110019 | 56 | 81 | 0.0 | 0.0 | 0.00 | 0.00 | 0.00 | 81 | 1015.4 |
| 20260901105521 | 56 | 81 | 0.0 | 1.0 | 0.00 | 0.00 | 0.00 | 81 | 1015.4 |
| 20260901105017 | 55 | 81 | 0.0 | 0.0 | 0.00 | 0.00 | 0.00 | 81 | 1015.5 |
| 20260901104519 | 55 | 81 | 0.0 | 3.0 | 0.00 | 0.00 | 0.00 | 81 | 1015.5 |
| 20260901104016 | 55 | 81 | 0.0 | 3.0 | 0.00 | 0.00 | 0.00 | 81 | 1015.5 |
| 20260901103519 | 55 | 81 | 1.0 | 3.0 | 0.00 | 0.00 | 0.00 | 81 | 1015.5 |
| 20260901103015 | 55 | 81 | 0.0 | 2.0 | 0.00 | 0.00 | 0.00 | 82 | 1015.5 |
| 20260901102516 | 55 | 81 | 0.0 | 4.0 | 0.00 | 0.00 | 0.00 | 82 | 1015.5 |
| 20260901102016 | 55 | 81 | 1.0 | 4.0 | 0.00 | 0.00 | 0.00 | 81 | 1015.3 |
| 20260901101516 | 55 | 74 | 0.0 | 3.0 | 0.00 | 0.00 | 0.00 | 81 | 1015.4 |
| 20260901101015 | 55 | 73 | 0.0 | 2.0 | 0.00 | 0.00 | 0.00 | 81 | 1015.4 |
| 20260901100515 | 55 | 73 | 0.0 | 1.0 | 0.00 | 0.00 | 0.00 | 81 | 1015.5 |
| 20260901100015 | 55 | 73 | 0.0 | 0.0 | 0.00 | 0.00 | 0.00 | 81 | 1015.5 |
| 20260901095514 | 55 | 73 | 0.0 | 0.0 | 0.00 | 0.00 | 0.00 | 82 | 1015.5 |
| 20260901095014 | 55 | 73 | 0.0 | 0.0 | 0.00 | 0.00 | 0.00 | 82 | 1015.4 |
| 20260901094514 | 55 | 73 | 0.0 | 1.0 | 0.00 | 0.00 | 0.00 | 82 | 1015.5 |
| 20260901094013 | 55 | 73 | 0.0 | 1.0 | 0.00 | 0.00 | 0.00 | 81 | 1015.4 |
| 20260901093514 | 55 | 73 | 0.0 | 0.0 | 0.00 | 0.00 | 0.00 | 81 | 1015.3 |
| 20260901093012 | 55 | 73 | 0.0 | 0.0 | 0.00 | 0.00 | 0.00 | 81 | 1015.5 |
| 20260901092513 | 55 | 73 | 0.0 | 0.0 | 0.00 | 0.00 | 0.00 | 81 | 1015.5 |
| 20260901092012 | 55 | 73 | 0.0 | 0.0 | 0.00 | 0.00 | 0.00 | 81 | 1015.6 |
| 20260901091512 | 55 | 73 | 0.0 | 0.0 | 0.00 | 0.00 | 0.00 | 82 | 1015.5 |
| 20260901091011 | 55 | 73 | 0.0 | 0.0 | 0.00 | 0.00 | 0.00 | 82 | 1015.5 |
| 20260901090511 | 55 | 73 | 0.0 | 0.0 | 0.00 | 0.00 | 0.00 | 82 | 1015.5 |
| 20260901090016 | 55 | 73 | 0.0 | 0.0 | 0.00 | 0.00 | 0.00 | 82 | 1015.5 |
| 20260901085510 | 54 | 73 | 0.0 | 0.0 | 0.00 | 0.00 | 0.00 | 82 | 1015.5 |
| 20260901085011 | 54 | 73 | 0.0 | 0.0 | 0.00 | 0.00 | 0.00 | 82 | 1015.4 |
| 20260901084509 | 54 | 73 | 0.0 | 0.0 | 0.00 | 0.00 | 0.00 | 82 | 1015.4 |
| 20260901084009 | 54 | 73 | 0.0 | 0.0 | 0.00 | 0.00 | 0.00 | 82 | 1015.5 |
| 20260901083510 | 54 | 73 | 0.0 | 0.0 | 0.00 | 0.00 | 0.00 | 83 | 1015.5 |
| 20260901083010 | 54 | 73 | 0.0 | 1.0 | 0.00 | 0.00 | 0.00 | 83 | 1015.6 |
| 20260901082509 | 54 | 73 | 0.0 | 1.0 | 0.00 | 0.00 | 0.00 | 83 | 1015.5 |
| 20260901082009 | 54 | 73 | 0.0 | 1.0 | 0.00 | 0.00 | 0.00 | 83 | 1015.6 |
| 20260901081507 | 54 | 73 | 0.0 | 2.0 | 0.00 | 0.00 | 0.00 | 83 | 1015.6 |
| 20260901081007 | 54 | 73 | 0.0 | 1.0 | 0.00 | 0.00 | 0.00 | 83 | 1015.5 |
| 20260901080506 | 54 | 73 | 0.0 | 1.0 | 0.00 | 0.00 | 0.00 | 83 | 1015.4 |
| 20260901080006 | 54 | 73 | 0.0 | 1.0 | 0.00 | 0.00 | 0.00 | 83 | 1015.3 |
| 20260901075505 | 55 | 73 | 0.0 | 0.0 | 0.00 | 0.00 | 0.00 | 83 | 1015.2 |
| 20260901075007 | 55 | 73 | 0.0 | 0.0 | 0.00 | 0.00 | 0.00 | 83 | 1015.3 |
| 20260901074504 | 55 | 73 | 0.0 | 0.0 | 0.00 | 0.00 | 0.00 | 83 | 1015.2 |
| 20260901074007 | 55 | 73 | 0.0 | 0.0 | 0.00 | 0.00 | 0.00 | 83 | 1015.2 |
| 20260901073503 | 55 | 73 | 0.0 | 0.0 | 0.00 | 0.00 | 0.00 | 83 | 1015.2 |
| 20260901073003 | 55 | 73 | 0.0 | 0.0 | 0.00 | 0.00 | 0.00 | 83 | 1015.3 |
| 20260901072502 | 55 | 73 | 0.0 | 2.0 | 0.00 | 0.00 | 0.00 | 83 | 1015.2 |
| 20260901072003 | 55 | 73 | 0.0 | 2.0 | 0.00 | 0.00 | 0.00 | 83 | 1015.3 |
| 20260901071503 | 55 | 73 | 0.0 | 2.0 | 0.00 | 0.00 | 0.00 | 83 | 1015.3 |
| 20260901071001 | 55 | 73 | 0.0 | 0.0 | 0.00 | 0.00 | 0.00 | 83 | 1015.3 |
| 20260901070502 | 55 | 73 | 0.0 | 1.0 | 0.00 | 0.00 | 0.00 | 83 | 1015.4 |
| 20260901070001 | 55 | 73 | 0.0 | 1.0 | 0.00 | 0.00 | 0.00 | 83 | 1015.4 |
| 20260901065602 | 55 | 73 | 0.0 | 0.0 | 0.00 | 0.00 | 0.00 | 83 | 1015.5 |
| 20260901065059 | 55 | 73 | 0.0 | 0.0 | 0.00 | 0.00 | 0.00 | 83 | 1015.4 |
| 20260901064559 | 55 | 73 | 0.0 | 0.0 | 0.00 | 0.00 | 0.00 | 83 | 1015.4 |
| 20260901064102 | 55 | 73 | 0.0 | 0.0 | 0.00 | 0.00 | 0.00 | 84 | 1015.5 |
| 20260901063558 | 55 | 73 | 0.0 | 0.0 | 0.00 | 0.00 | 0.00 | 84 | 1015.4 |
| 20260901063104 | 56 | 73 | 0.0 | 0.0 | 0.00 | 0.00 | 0.00 | 84 | 1015.4 |
| 20260901062600 | 56 | 73 | 0.0 | 0.0 | 0.00 | 0.00 | 0.00 | 84 | 1015.3 |
| 20260901062101 | 56 | 73 | 0.0 | 0.0 | 0.00 | 0.00 | 0.00 | 84 | 1015.5 |
| 20260901061658 | 56 | 73 | 0.0 | 0.0 | 0.00 | 0.00 | 0.00 | 84 | 1015.4 |
| 20260901061056 | 56 | 73 | 0.0 | 0.0 | 0.00 | 0.00 | 0.00 | 84 | 1015.3 |
| 20260901060556 | 56 | 73 | 0.0 | 0.0 | 0.00 | 0.00 | 0.00 | 84 | 1015.3 |
| 20260901060056 | 56 | 73 | 0.0 | 0.0 | 0.00 | 0.00 | 0.00 | 84 | 1015.2 |
| 20260901055555 | 56 | 73 | 0.0 | 0.0 | 0.00 | 0.00 | 0.00 | 84 | 1015.1 |